Location: Asheville, NC
(35.6000°N, 82.5500°W)
Time: 20:24:04
(UTC-04:00)

Vanguard 3 - Pass Details

Date: 11 March 2018
Orbit: 508 x 3264 km, 33.3° (Epoch: 24 June)

Event Time Altitude Azimuth Distance (km) Brightness Sun altitude
Rises 16:53:46 0° 280° (W) 4,997 11.9 30.2°
Reaches altitude 10° 16:58:33 10° 267° (W) 3,455 11.5 29.4°
Maximum altitude 17:04:19 21° 222° (SW) 2,084 11.0 28.4°
Drops below altitude 10° 17:08:24 10° 174° (S) 2,331 9.9 27.6°
Sets 17:10:55 0° 156° (SSE) 3,006 10.1 27.2°
